M I D A S
Marine Information and Data Acquisition System
Tripno 359 of the Zeeleeuw from 2002-11-18 08:06:18 to 2002-11-18 15:35:00
Back to CruiseResearch ActivitiesStationsMapUnderway DataData graphs

EquipmentUnitsComments
TimeDGPSUTC
LatitudeDGPSDM.mWGS84
LongitudeDGPSDM.mWGS84
SpeedMeteo Stationm/sRelative wind speed
DirectionMeteo StationdegRelative wind direction
TemperatureMeteo Stationdeg CelciusAir temperature
PressureMeteo StationPaAtmospheric pressure
HumidityMeteo Station%Relative humidity
Missing or incorrect values are displayed as -999
Metereological data collected by the RV Zeeleeuw from 2002-11-18 08:06:18 to 2002-11-18 15:35:00
                                                                                    Next 1000 lines
Time Latitude Longitude Speed Direction Temperature Pressure Humidity
2002-11-18 08:06:28 51°14.704 2°54.441 4.1 267 7.6 101340 93
2002-11-18 08:06:33 51°14.718 2°54.427 3.9 268 7.6 101340 93
2002-11-18 08:06:38 51°14.733 2°54.414 3.8 262 7.6 101340 93
2002-11-18 08:06:42 51°14.745 2°54.404 4.2 266 7.6 101340 93
2002-11-18 08:06:48 51°14.763 2°54.388 4.1 265 7.6 101340 93
2002-11-18 08:06:53 51°14.777 2°54.375 4 268 7.6 101340 93
2002-11-18 08:06:58 51°14.792 2°54.361 3.9 269 7.6 101340 93
2002-11-18 08:07:02 51°14.804 2°54.35 3.8 271 7.6 101340 93
2002-11-18 08:07:08 51°14.822 2°54.335 4.1 266 7.6 101340 93
2002-11-18 08:07:13 51°14.836 2°54.322 3.9 270 7.6 101340 93
2002-11-18 08:07:18 51°14.851 2°54.308 3.8 277 7.6 101340 93
2002-11-18 08:07:23 51°14.866 2°54.295 4.2 269 7.6 101340 93
2002-11-18 08:07:28 51°14.88 2°54.281 4.4 263 7.6 101340 93
2002-11-18 08:07:33 51°14.895 2°54.268 3.8 270 7.6 101330 93
2002-11-18 08:07:38 51°14.909 2°54.255 3.8 271 7.6 101330 93
2002-11-18 08:07:42 51°14.921 2°54.245 3.3 271 7.6 101340 93
2002-11-18 08:07:48 51°14.939 2°54.23 3.8 269 7.6 101340 93
2002-11-18 08:07:53 51°14.953 2°54.216 3.5 266 7.6 101340 93
2002-11-18 08:07:58 51°14.968 2°54.204 3.8 265 7.6 101340 93
2002-11-18 08:08:02 51°14.979 2°54.193 3.7 264 7.6 101340 93
2002-11-18 08:08:08 51°14.997 2°54.178 4 269 7.6 101340 93
2002-11-18 08:08:13 51°15.011 2°54.164 3.7 270 7.6 101340 92
2002-11-18 08:08:18 51°15.026 2°54.151 4.2 264 7.6 101340 92
2002-11-18 08:08:22 51°15.038 2°54.14 4.2 266 7.6 101340 92
2002-11-18 08:08:28 51°15.055 2°54.125 4.3 267 7.6 101340 92
2002-11-18 08:08:33 51°15.069 2°54.111 4.4 265 7.6 101340 93
2002-11-18 08:08:38 51°15.084 2°54.098 4.3 273 7.6 101340 93
2002-11-18 08:08:42 51°15.096 2°54.087 4.5 271 7.6 101340 92
2002-11-18 08:08:48 51°15.113 2°54.071 4 270 7.6 101340 92
2002-11-18 08:08:52 51°15.125 2°54.06 4 274 7.6 101340 93
2002-11-18 08:08:58 51°15.143 2°54.044 4.3 266 7.6 101340 93
2002-11-18 08:09:02 51°15.154 2°54.033 4.3 269 7.6 101340 93
2002-11-18 08:09:08 51°15.172 2°54.017 4.4 271 7.6 101340 93
2002-11-18 08:09:13 51°15.186 2°54.004 4.7 271 7.7 101340 92
2002-11-18 08:09:18 51°15.201 2°53.991 4.3 275 7.7 101340 92
2002-11-18 08:09:21 51°15.21 2°53.983 4.6 272 7.7 101340 92
2002-11-18 08:09:28 51°15.231 2°53.964 4.7 269 7.7 101340 92
2002-11-18 08:09:33 51°15.245 2°53.951 4.8 278 7.7 101340 92
2002-11-18 08:09:37 51°15.257 2°53.94 4.5 273 7.7 101340 92
2002-11-18 08:09:43 51°15.274 2°53.925 4.9 267 7.7 101340 92
2002-11-18 08:09:48 51°15.289 2°53.911 4.3 273 7.7 101340 92
2002-11-18 08:09:53 51°15.303 2°53.898 4.3 270 7.7 101340 92
2002-11-18 08:09:58 51°15.318 2°53.884 4.2 276 7.7 101340 92
2002-11-18 08:10:02 51°15.33 2°53.874 4.5 274 7.7 101340 92
2002-11-18 08:10:08 51°15.347 2°53.859 4.2 269 7.7 101340 92
2002-11-18 08:10:13 51°15.362 2°53.845 4.3 272 7.7 101340 92
2002-11-18 08:10:18 51°15.377 2°53.832 3.9 267 7.7 101340 92
2002-11-18 08:10:22 51°15.389 2°53.821 4.3 269 7.7 101340 92
2002-11-18 08:10:28 51°15.406 2°53.805 4 276 7.7 101340 92
2002-11-18 08:10:33 51°15.421 2°53.792 4.1 273 7.7 101340 92
2002-11-18 08:10:38 51°15.435 2°53.778 3.8 273 7.7 101340 92
2002-11-18 08:10:43 51°15.45 2°53.765 4 265 7.7 101340 92
2002-11-18 08:10:48 51°15.464 2°53.751 4.5 273 7.7 101340 92
2002-11-18 08:10:53 51°15.479 2°53.738 4.6 272 7.7 101340 92
2002-11-18 08:10:58 51°15.494 2°53.724 4.6 276 7.7 101340 92
2002-11-18 08:11:02 51°15.506 2°53.713 4.4 275 7.7 101340 92
2002-11-18 08:11:08 51°15.523 2°53.696 4.2 272 7.7 101340 92
2002-11-18 08:11:13 51°15.537 2°53.682 4.3 268 7.7 101340 92
2002-11-18 08:11:18 51°15.552 2°53.668 4.3 270 7.7 101340 92
2002-11-18 08:11:22 51°15.564 2°53.657 4 277 7.8 101340 92
2002-11-18 08:11:28 51°15.582 2°53.64 4.5 271 7.8 101340 92
2002-11-18 08:11:33 51°15.596 2°53.627 4.3 271 7.8 101340 92
2002-11-18 08:11:38 51°15.611 2°53.613 4.2 272 7.8 101340 92
2002-11-18 08:11:42 51°15.623 2°53.603 4.1 269 7.8 101340 92
2002-11-18 08:11:48 51°15.64 2°53.586 4.6 274 7.8 101340 92
2002-11-18 08:11:53 51°15.655 2°53.573 4.2 272 7.8 101340 92
2002-11-18 08:11:58 51°15.67 2°53.559 4.8 266 7.8 101340 92
2002-11-18 08:12:02 51°15.681 2°53.549 4.6 270 7.8 101340 92
2002-11-18 08:12:08 51°15.699 2°53.532 4.7 269 7.8 101340 92
2002-11-18 08:12:13 51°15.714 2°53.519 4.9 271 7.8 101340 92
2002-11-18 08:12:18 51°15.728 2°53.505 4.4 273 7.8 101340 92
2002-11-18 08:12:23 51°15.743 2°53.491 4.7 275 7.8 101340 92
2002-11-18 08:12:28 51°15.757 2°53.478 4.4 274 7.8 101340 92
2002-11-18 08:12:33 51°15.772 2°53.464 4.3 272 7.8 101340 92
2002-11-18 08:12:38 51°15.787 2°53.451 4.5 270 7.8 101340 92
2002-11-18 08:12:42 51°15.798 2°53.44 4.7 275 7.8 101340 92
2002-11-18 08:12:48 51°15.816 2°53.424 4.6 268 7.8 101340 92
2002-11-18 08:12:53 51°15.83 2°53.41 4.7 270 7.8 101340 92
2002-11-18 08:12:58 51°15.845 2°53.397 4.3 273 7.8 101340 92
2002-11-18 08:13:02 51°15.856 2°53.386 4.4 269 7.8 101340 93
2002-11-18 08:13:08 51°15.874 2°53.37 4.2 262 7.8 101340 93
2002-11-18 08:13:13 51°15.888 2°53.356 3.9 272 7.9 101330 92
2002-11-18 08:13:18 51°15.903 2°53.343 4 270 7.9 101330 92
2002-11-18 08:13:23 51°15.918 2°53.329 4 271 7.9 101340 92
2002-11-18 08:13:28 51°15.932 2°53.315 3.8 264 7.9 101340 92
2002-11-18 08:13:33 51°15.947 2°53.302 4.3 268 7.9 101340 92
2002-11-18 08:13:37 51°15.958 2°53.291 3.9 268 7.9 101340 92
2002-11-18 08:13:42 51°15.973 2°53.278 3.8 270 7.9 101340 92
2002-11-18 08:13:48 51°15.99 2°53.261 3.9 265 7.9 101340 92
2002-11-18 08:13:53 51°16.005 2°53.248 4.3 268 7.9 101340 92
2002-11-18 08:13:58 51°16.019 2°53.234 4.4 272 7.9 101340 92
2002-11-18 08:14:03 51°16.034 2°53.221 4.3 270 7.9 101330 92
2002-11-18 08:14:08 51°16.048 2°53.207 4.3 271 7.9 101330 92
2002-11-18 08:14:13 51°16.063 2°53.193 4 276 7.9 101330 92
2002-11-18 08:14:18 51°16.077 2°53.18 4.3 269 7.9 101330 92
2002-11-18 08:14:22 51°16.089 2°53.17 4.3 262 7.9 101330 92
2002-11-18 08:14:28 51°16.107 2°53.154 4.5 268 7.9 101330 92
2002-11-18 08:14:33 51°16.121 2°53.14 4.2 268 7.9 101340 92
2002-11-18 08:14:38 51°16.136 2°53.127 4.1 269 7.9 101340 92
2002-11-18 08:14:42 51°16.148 2°53.116 4.7 274 7.9 101340 92
2002-11-18 08:14:48 51°16.165 2°53.1 4.3 268 7.9 101340 92
2002-11-18 08:14:53 51°16.18 2°53.087 4.3 270 7.9 101340 92
2002-11-18 08:14:58 51°16.195 2°53.073 4.3 267 7.9 101340 92
2002-11-18 08:15:02 51°16.206 2°53.062 4.4 272 8 101340 93
2002-11-18 08:15:08 51°16.224 2°53.046 4.2 269 8 101340 93
2002-11-18 08:15:13 51°16.239 2°53.033 3.8 273 8 101340 93
2002-11-18 08:15:18 51°16.253 2°53.019 3.8 271 8 101340 93
2002-11-18 08:15:22 51°16.265 2°53.009 3.8 271 8 101340 93
2002-11-18 08:15:28 51°16.282 2°52.993 4.3 274 8 101340 93
2002-11-18 08:15:33 51°16.297 2°52.98 4.2 272 8 101330 93
2002-11-18 08:15:38 51°16.312 2°52.967 3.9 270 8 101330 93
2002-11-18 08:15:42 51°16.324 2°52.957 4.3 265 8 101340 93
2002-11-18 08:15:47 51°16.338 2°52.944 4.7 271 8 101340 93
2002-11-18 08:15:53 51°16.356 2°52.928 4.5 273 8 101340 93
2002-11-18 08:15:58 51°16.37 2°52.914 3.9 277 8 101340 93
2002-11-18 08:16:02 51°16.382 2°52.903 4.1 274 8 101340 92
2002-11-18 08:16:08 51°16.4 2°52.887 3.8 273 8 101340 92
2002-11-18 08:16:13 51°16.415 2°52.873 4.5 272 8.1 101340 93
2002-11-18 08:16:18 51°16.43 2°52.86 4.4 273 8.1 101340 93
2002-11-18 08:16:22 51°16.442 2°52.849 4.4 278 8.1 101340 93
2002-11-18 08:16:28 51°16.46 2°52.832 4.5 267 8.1 101340 93
2002-11-18 08:16:33 51°16.475 2°52.818 4.7 268 8.1 101330 93
2002-11-18 08:16:38 51°16.491 2°52.804 4.1 270 8.1 101330 93
2002-11-18 08:16:42 51°16.503 2°52.793 3.8 270 8.1 101330 93
2002-11-18 08:16:48 51°16.521 2°52.777 4.7 265 8.1 101330 93
2002-11-18 08:16:53 51°16.537 2°52.763 4 267 8.1 101340 93
2002-11-18 08:16:58 51°16.553 2°52.751 4.8 267 8.1 101340 93
2002-11-18 08:17:03 51°16.568 2°52.738 4.9 265 8.1 101330 92
2002-11-18 08:17:08 51°16.584 2°52.726 4.4 277 8.1 101330 92
2002-11-18 08:17:13 51°16.6 2°52.713 4.3 273 8.1 101340 93
2002-11-18 08:17:18 51°16.616 2°52.7 4.5 273 8.1 101340 93
2002-11-18 08:17:23 51°16.632 2°52.688 4.2 268 8.1 101340 93
2002-11-18 08:17:28 51°16.648 2°52.676 4.4 273 8.1 101340 93
2002-11-18 08:17:33 51°16.664 2°52.665 4.2 272 8.2 101340 93
2002-11-18 08:17:38 51°16.68 2°52.653 4.8 276 8.2 101340 93
2002-11-18 08:17:42 51°16.693 2°52.644 4.4 275 8.2 101340 93
2002-11-18 08:17:48 51°16.712 2°52.63 4.3 273 8.2 101340 93
2002-11-18 08:17:53 51°16.728 2°52.619 3.9 276 8.2 101330 93
2002-11-18 08:17:58 51°16.744 2°52.608 4.3 274 8.2 101330 93
2002-11-18 08:18:02 51°16.756 2°52.599 3.8 272 8.2 101330 93
2002-11-18 08:18:08 51°16.775 2°52.585 4 273 8.2 101330 93
2002-11-18 08:18:13 51°16.791 2°52.574 4 270 8.2 101340 93
2002-11-18 08:18:18 51°16.807 2°52.562 3.8 272 8.2 101340 93
2002-11-18 08:18:22 51°16.82 2°52.552 4.3 269 8.2 101340 93
2002-11-18 08:18:28 51°16.839 2°52.539 3.9 276 8.2 101340 93
2002-11-18 08:18:33 51°16.855 2°52.528 3.7 273 8.2 101340 93
2002-11-18 08:18:38 51°16.871 2°52.517 3.8 272 8.2 101340 93
2002-11-18 08:18:43 51°16.887 2°52.506 3.8 272 8.2 101340 92
2002-11-18 08:18:48 51°16.903 2°52.495 3.8 270 8.2 101340 92
2002-11-18 08:18:53 51°16.919 2°52.484 3.7 268 8.2 101340 93
2002-11-18 08:18:58 51°16.935 2°52.473 3.5 270 8.2 101340 93
2002-11-18 08:19:02 51°16.947 2°52.464 3.4 271 8.2 101340 92
2002-11-18 08:19:08 51°16.966 2°52.452 3.5 270 8.2 101340 92
2002-11-18 08:19:13 51°16.982 2°52.441 3.3 273 8.3 101340 92
2002-11-18 08:19:18 51°16.998 2°52.43 3.8 270 8.3 101340 92
2002-11-18 08:19:22 51°17.011 2°52.422 3.9 275 8.3 101340 92
2002-11-18 08:19:28 51°17.03 2°52.409 3.8 266 8.3 101340 92
2002-11-18 08:19:33 51°17.046 2°52.398 4.2 265 8.3 101340 92
2002-11-18 08:19:38 51°17.062 2°52.387 3.6 271 8.3 101340 92
2002-11-18 08:19:42 51°17.075 2°52.379 3.5 268 8.3 101330 92
2002-11-18 08:19:48 51°17.094 2°52.366 3.5 271 8.3 101330 92
2002-11-18 08:19:53 51°17.111 2°52.355 3.9 266 8.3 101340 92
2002-11-18 08:19:58 51°17.127 2°52.344 3.3 277 8.3 101340 92
2002-11-18 08:20:02 51°17.14 2°52.336 3.1 273 8.3 101340 93
2002-11-18 08:20:07 51°17.156 2°52.327 3.7 266 8.3 101340 93
2002-11-18 08:20:13 51°17.175 2°52.315 3.1 266 8.3 101340 93
2002-11-18 08:20:17 51°17.189 2°52.307 3.6 264 8.3 101340 93
2002-11-18 08:20:22 51°17.205 2°52.299 3 276 8.3 101330 93
2002-11-18 08:20:28 51°17.225 2°52.287 3.2 275 8.3 101330 93
2002-11-18 08:20:33 51°17.241 2°52.278 3.5 272 8.3 101340 93
2002-11-18 08:20:38 51°17.258 2°52.269 3.2 271 8.3 101340 93
2002-11-18 08:20:42 51°17.271 2°52.261 3.5 277 8.4 101340 93
2002-11-18 08:20:48 51°17.29 2°52.25 3.1 275 8.4 101340 93
2002-11-18 08:20:53 51°17.307 2°52.241 3.3 277 8.4 101340 93
2002-11-18 08:20:58 51°17.323 2°52.231 3.4 272 8.4 101340 93
2002-11-18 08:21:02 51°17.336 2°52.224 3.3 275 8.4 101330 93
2002-11-18 08:21:08 51°17.355 2°52.212 3.4 268 8.4 101330 93
2002-11-18 08:21:13 51°17.372 2°52.203 3.2 273 8.4 101340 93
2002-11-18 08:21:18 51°17.388 2°52.194 3.3 269 8.4 101340 93
2002-11-18 08:21:22 51°17.401 2°52.186 3 273 8.4 101340 92
2002-11-18 08:21:28 51°17.421 2°52.175 3.2 269 8.4 101340 92
2002-11-18 08:21:33 51°17.437 2°52.165 3.2 274 8.4 101340 92
2002-11-18 08:21:38 51°17.453 2°52.156 2.8 275 8.4 101340 92
2002-11-18 08:21:42 51°17.466 2°52.148 2.8 271 8.4 101340 92
2002-11-18 08:21:48 51°17.486 2°52.137 2.8 274 8.4 101340 92
2002-11-18 08:21:53 51°17.502 2°52.127 2.8 274 8.4 101330 92
2002-11-18 08:21:58 51°17.519 2°52.118 3 275 8.4 101330 92
2002-11-18 08:22:03 51°17.535 2°52.108 2.9 277 8.4 101330 92
2002-11-18 08:22:08 51°17.551 2°52.099 3.5 276 8.4 101330 92
2002-11-18 08:22:13 51°17.567 2°52.089 3.5 276 8.4 101340 92
2002-11-18 08:22:18 51°17.584 2°52.08 3.2 272 8.4 101340 92
2002-11-18 08:22:23 51°17.6 2°52.071 3.3 275 8.4 101340 92
2002-11-18 08:22:28 51°17.616 2°52.061 3.3 278 8.4 101340 92
2002-11-18 08:22:33 51°17.633 2°52.051 3.1 282 8.4 101340 92
2002-11-18 08:22:38 51°17.649 2°52.041 3.2 277 8.4 101340 92
2002-11-18 08:22:42 51°17.662 2°52.033 3 281 8.4 101340 92
2002-11-18 08:22:48 51°17.681 2°52.022 3.1 276 8.4 101340 92
2002-11-18 08:22:53 51°17.697 2°52.013 3.3 276 8.4 101340 92
2002-11-18 08:22:58 51°17.713 2°52.003 2.9 275 8.4 101340 92
2002-11-18 08:23:02 51°17.726 2°51.995 3.2 281 8.5 101330 92
2002-11-18 08:23:08 51°17.745 2°51.982 4.1 273 8.5 101330 92
2002-11-18 08:23:13 51°17.761 2°51.97 3.1 282 8.5 101340 92
2002-11-18 08:23:18 51°17.777 2°51.959 3.6 279 8.5 101340 92
2002-11-18 08:23:22 51°17.79 2°51.949 3.5 273 8.5 101340 92
2002-11-18 08:23:28 51°17.809 2°51.936 3.9 276 8.5 101340 92
2002-11-18 08:23:33 51°17.824 2°51.923 4.1 275 8.5 101340 92
2002-11-18 08:23:38 51°17.84 2°51.911 3.9 282 8.5 101340 92
2002-11-18 08:23:42 51°17.853 2°51.902 3.9 275 8.5 101330 92
2002-11-18 08:23:47 51°17.868 2°51.89 3.8 279 8.5 101330 92
2002-11-18 08:23:53 51°17.888 2°51.876 3.9 282 8.5 101330 92
2002-11-18 08:23:58 51°17.904 2°51.864 3.8 277 8.5 101330 92
2002-11-18 08:24:02 51°17.916 2°51.854 3.8 278 8.5 101330 92
2002-11-18 08:24:08 51°17.935 2°51.84 3.7 280 8.5 101330 92
2002-11-18 08:24:13 51°17.951 2°51.828 3.9 285 8.5 101330 92
2002-11-18 08:24:18 51°17.967 2°51.817 4 279 8.5 101330 92
2002-11-18 08:24:21 51°17.977 2°51.81 3.6 279 8.5 101340 92
2002-11-18 08:24:28 51°17.999 2°51.793 4.2 279 8.5 101340 92
2002-11-18 08:24:33 51°18.015 2°51.781 4.2 272 8.6 101330 92
2002-11-18 08:24:38 51°18.031 2°51.769 3.5 281 8.6 101330 92
2002-11-18 08:24:42 51°18.043 2°51.759 3.6 279 8.6 101330 92
2002-11-18 08:24:48 51°18.062 2°51.745 3.8 277 8.6 101330 92
2002-11-18 08:24:53 51°18.078 2°51.733 2.2 277 8.6 101340 93
2002-11-18 08:24:58 51°18.094 2°51.721 3.5 278 8.6 101340 93
2002-11-18 08:25:02 51°18.107 2°51.712 3.7 271 8.6 101330 93
2002-11-18 08:25:08 51°18.126 2°51.697 3.9 260 8.6 101330 93
2002-11-18 08:25:13 51°18.142 2°51.685 3.9 275 8.6 101330 93
2002-11-18 08:25:18 51°18.158 2°51.673 3.8 275 8.6 101330 93
2002-11-18 08:25:22 51°18.171 2°51.664 3.8 279 8.6 101330 93
2002-11-18 08:25:28 51°18.19 2°51.649 3.8 271 8.6 101330 93
2002-11-18 08:25:33 51°18.206 2°51.637 4.1 273 8.6 101340 93
2002-11-18 08:25:38 51°18.222 2°51.625 3.7 276 8.6 101340 93
2002-11-18 08:25:42 51°18.234 2°51.615 4 276 8.6 101330 92
2002-11-18 08:25:48 51°18.254 2°51.6 3.8 273 8.6 101330 92
2002-11-18 08:25:53 51°18.269 2°51.588 3.8 273 8.6 101340 92
2002-11-18 08:25:58 51°18.285 2°51.576 3.7 274 8.6 101340 92
2002-11-18 08:26:02 51°18.298 2°51.566 3.7 272 8.6 101340 92
2002-11-18 08:26:08 51°18.317 2°51.551 3.6 271 8.6 101340 92
2002-11-18 08:26:13 51°18.333 2°51.539 3.5 272 8.7 101340 92
2002-11-18 08:26:17 51°18.346 2°51.529 3.5 268 8.7 101340 92
2002-11-18 08:26:22 51°18.362 2°51.516 3.9 271 8.7 101330 92
2002-11-18 08:26:27 51°18.378 2°51.504 4.1 269 8.7 101330 92
2002-11-18 08:26:33 51°18.397 2°51.49 3.7 273 8.7 101340 92
2002-11-18 08:26:38 51°18.413 2°51.477 3.1 268 8.7 101340 92
2002-11-18 08:26:41 51°18.422 2°51.47 3.6 263 8.7 101340 92
2002-11-18 08:26:48 51°18.445 2°51.453 3.4 268 8.7 101340 92
2002-11-18 08:26:53 51°18.46 2°51.44 3.7 268 8.7 101340 92
2002-11-18 08:26:58 51°18.476 2°51.428 3.4 270 8.7 101340 92
2002-11-18 08:27:03 51°18.492 2°51.415 3.4 270 8.7 101340 92
2002-11-18 08:27:07 51°18.505 2°51.405 3.4 267 8.7 101340 92
2002-11-18 08:27:13 51°18.524 2°51.39 4.2 268 8.7 101340 92
2002-11-18 08:27:18 51°18.54 2°51.378 3.8 262 8.7 101340 92
2002-11-18 08:27:22 51°18.553 2°51.368 3.7 262 8.7 101340 92
2002-11-18 08:27:27 51°18.569 2°51.356 3.4 258 8.7 101340 92
2002-11-18 08:27:33 51°18.588 2°51.341 3.3 255 8.7 101340 92
2002-11-18 08:27:38 51°18.603 2°51.328 3 260 8.7 101340 92
2002-11-18 08:27:42 51°18.616 2°51.318 3.2 259 8.8 101340 93
2002-11-18 08:27:48 51°18.635 2°51.303 3.4 262 8.8 101340 93
2002-11-18 08:27:53 51°18.651 2°51.29 3.4 256 8.8 101340 93
2002-11-18 08:27:58 51°18.667 2°51.277 2.9 253 8.8 101340 93
2002-11-18 08:28:03 51°18.682 2°51.265 2.7 257 8.8 101340 93
2002-11-18 08:28:08 51°18.698 2°51.252 3.6 261 8.8 101340 93
2002-11-18 08:28:13 51°18.714 2°51.239 3.6 262 8.8 101340 93
2002-11-18 08:28:17 51°18.727 2°51.229 3.1 261 8.8 101340 93
2002-11-18 08:28:23 51°18.745 2°51.214 3.3 262 8.8 101340 93
2002-11-18 08:28:28 51°18.761 2°51.201 3 262 8.8 101340 93
2002-11-18 08:28:33 51°18.777 2°51.188 3.6 260 8.8 101340 93
2002-11-18 08:28:37 51°18.789 2°51.177 3.8 264 8.8 101340 93
2002-11-18 08:28:42 51°18.805 2°51.164 3.6 270 8.9 101340 93
2002-11-18 08:28:47 51°18.821 2°51.151 3.9 269 8.9 101340 93
2002-11-18 08:28:53 51°18.84 2°51.136 3.7 264 8.9 101330 93
2002-11-18 08:28:58 51°18.856 2°51.123 3.3 267 8.9 101330 93
2002-11-18 08:29:02 51°18.869 2°51.113 3.8 264 8.9 101340 93
2002-11-18 08:29:08 51°18.887 2°51.097 3.5 264 8.9 101340 93
2002-11-18 08:29:13 51°18.903 2°51.085 3.7 265 8.9 101340 93
2002-11-18 08:29:18 51°18.919 2°51.072 4.2 267 8.9 101340 93
2002-11-18 08:29:22 51°18.932 2°51.062 4 270 8.9 101340 93
2002-11-18 08:29:28 51°18.951 2°51.046 3.9 271 8.9 101340 93
2002-11-18 08:29:33 51°18.967 2°51.034 3.9 269 8.9 101340 93
2002-11-18 08:29:38 51°18.983 2°51.02 3.9 272 8.9 101340 93
2002-11-18 08:29:42 51°18.995 2°51.01 3.9 269 8.9 101340 93
2002-11-18 08:29:47 51°19.011 2°50.997 4.9 275 8.9 101340 93
2002-11-18 08:29:53 51°19.03 2°50.982 4.3 273 9 101340 93
2002-11-18 08:29:58 51°19.046 2°50.969 4.5 272 9 101340 93
2002-11-18 08:30:03 51°19.062 2°50.956 4.8 266 9 101340 93
2002-11-18 08:30:08 51°19.078 2°50.944 5.1 270 9 101340 93
2002-11-18 08:30:13 51°19.094 2°50.931 4.9 271 9 101340 93
2002-11-18 08:30:18 51°19.11 2°50.918 4.8 267 9 101340 93
2002-11-18 08:30:21 51°19.119 2°50.911 4.6 267 9 101340 93
2002-11-18 08:30:28 51°19.142 2°50.894 5.1 265 9 101340 93
2002-11-18 08:30:33 51°19.158 2°50.881 5 262 9 101340 93
2002-11-18 08:30:38 51°19.174 2°50.868 4.8 264 9 101340 93
2002-11-18 08:30:42 51°19.187 2°50.858 4.6 267 9 101340 93
2002-11-18 08:30:47 51°19.203 2°50.845 4.9 262 9 101340 93
2002-11-18 08:30:53 51°19.221 2°50.83 4.6 267 9 101340 93
2002-11-18 08:30:57 51°19.234 2°50.82 4.7 259 9 101340 93
2002-11-18 08:31:02 51°19.25 2°50.807 4.8 259 9 101340 93
2002-11-18 08:31:08 51°19.269 2°50.791 4.5 260 9 101340 93
2002-11-18 08:31:13 51°19.285 2°50.778 4.7 261 9.1 101340 93
2002-11-18 08:31:18 51°19.301 2°50.766 4.3 260 9.1 101340 93
2002-11-18 08:31:22 51°19.314 2°50.755 4.6 261 9.1 101340 93
2002-11-18 08:31:27 51°19.33 2°50.742 5.4 247 9.1 101340 93
2002-11-18 08:31:33 51°19.349 2°50.727 5.7 253 9.2 101340 93
2002-11-18 08:31:38 51°19.365 2°50.714 5.5 250 9.2 101340 93
2002-11-18 08:31:42 51°19.378 2°50.704 5.6 252 9.1 101340 93
2002-11-18 08:31:48 51°19.397 2°50.689 5.2 256 9.1 101340 93
2002-11-18 08:31:53 51°19.413 2°50.676 5.3 254 9.1 101340 93
2002-11-18 08:31:58 51°19.429 2°50.664 6.4 253 9.1 101340 93
2002-11-18 08:32:03 51°19.445 2°50.652 6.4 252 9.1 101340 93
2002-11-18 08:32:08 51°19.461 2°50.639 8 250 9.1 101340 93
2002-11-18 08:32:13 51°19.476 2°50.626 7.4 245 9.1 101340 93
2002-11-18 08:32:18 51°19.492 2°50.613 7.8 245 9.1 101340 93
2002-11-18 08:32:21 51°19.502 2°50.606 8.5 246 9.1 101340 93
2002-11-18 08:32:28 51°19.524 2°50.589 8 249 9.1 101340 93
2002-11-18 08:32:32 51°19.536 2°50.579 8 249 9.1 101340 92
2002-11-18 08:32:38 51°19.555 2°50.564 7.7 248 9.1 101340 92
2002-11-18 08:32:43 51°19.571 2°50.552 8 248 9.1 101330 92
2002-11-18 08:32:48 51°19.587 2°50.54 8.4 247 9.1 101330 92
2002-11-18 08:32:53 51°19.603 2°50.528 8.7 248 9 101330 92
2002-11-18 08:32:58 51°19.619 2°50.516 8.7 250 9 101330 92
2002-11-18 08:33:02 51°19.632 2°50.506 9 246 9 101330 92
2002-11-18 08:33:08 51°19.651 2°50.491 8.7 246 9 101330 92
2002-11-18 08:33:13 51°19.667 2°50.479 8.6 247 8.9 101330 92
2002-11-18 08:33:18 51°19.683 2°50.467 9.2 247 8.9 101330 92
2002-11-18 08:33:22 51°19.696 2°50.457 8.9 248 9 101320 92
2002-11-18 08:33:28 51°19.715 2°50.443 8.7 248 9 101320 92
2002-11-18 08:33:33 51°19.731 2°50.431 8.5 247 9 101320 91
2002-11-18 08:33:38 51°19.747 2°50.419 8.5 247 9 101320 91
2002-11-18 08:33:43 51°19.763 2°50.407 9 245 9 101330 91
2002-11-18 08:33:48 51°19.78 2°50.395 9.8 248 9 101330 91
2002-11-18 08:33:53 51°19.796 2°50.382 9.4 249 9 101320 91
2002-11-18 08:33:58 51°19.813 2°50.37 9.6 251 9 101320 91
2002-11-18 08:34:03 51°19.83 2°50.358 9.4 249 9 101320 91
2002-11-18 08:34:07 51°19.843 2°50.348 9 247 9 101320 91
2002-11-18 08:34:13 51°19.863 2°50.333 9.4 250 9 101320 91
2002-11-18 08:34:18 51°19.879 2°50.32 8.9 247 9 101320 91
2002-11-18 08:34:23 51°19.896 2°50.308 9.8 247 9.1 101320 91
2002-11-18 08:34:27 51°19.91 2°50.298 9.9 246 9.1 101320 91
2002-11-18 08:34:33 51°19.93 2°50.283 9.6 248 9.1 101320 90
2002-11-18 08:34:37 51°19.943 2°50.273 9.8 248 9.1 101320 90
2002-11-18 08:34:41 51°19.957 2°50.263 10.2 249 9.1 101320 90
2002-11-18 08:34:48 51°19.98 2°50.246 9.6 250 9.1 101320 90
2002-11-18 08:34:53 51°19.997 2°50.233 9.6 248 9.2 101310 90
2002-11-18 08:34:58 51°20.013 2°50.221 9.7 247 9.2 101310 90
2002-11-18 08:35:02 51°20.027 2°50.21 9.2 248 9.2 101310 90
2002-11-18 08:35:08 51°20.047 2°50.195 9.3 248 9.2 101310 90
2002-11-18 08:35:13 51°20.064 2°50.182 9.6 247 9.3 101320 90
2002-11-18 08:35:18 51°20.08 2°50.169 10 248 9.3 101320 90
2002-11-18 08:35:21 51°20.091 2°50.162 9.2 249 9.3 101310 89
2002-11-18 08:35:28 51°20.114 2°50.144 8.8 249 9.3 101310 89
2002-11-18 08:35:33 51°20.131 2°50.13 9.4 249 9.3 101320 89
2002-11-18 08:35:38 51°20.148 2°50.117 8.6 249 9.3 101320 89
2002-11-18 08:35:42 51°20.161 2°50.107 9.2 250 9.4 101320 89
2002-11-18 08:35:48 51°20.181 2°50.091 9.1 246 9.4 101320 89
2002-11-18 08:35:53 51°20.197 2°50.078 8.9 245 9.4 101320 88
2002-11-18 08:35:58 51°20.214 2°50.065 8.9 245 9.4 101320 88
2002-11-18 08:36:02 51°20.228 2°50.054 8.5 245 9.4 101320 88
2002-11-18 08:36:08 51°20.247 2°50.038 8.7 247 9.4 101320 88
2002-11-18 08:36:13 51°20.264 2°50.025 9.3 248 9.5 101320 88
2002-11-18 08:36:18 51°20.281 2°50.011 8.7 247 9.5 101320 88
2002-11-18 08:36:22 51°20.294 2°50 9.1 248 9.5 101320 88
2002-11-18 08:36:27 51°20.31 2°49.986 9.9 247 9.5 101320 88
2002-11-18 08:36:33 51°20.33 2°49.969 9.6 246 9.6 101330 87
2002-11-18 08:36:38 51°20.346 2°49.954 9 244 9.6 101330 87
2002-11-18 08:36:42 51°20.359 2°49.942 9.6 247 9.6 101320 87
2002-11-18 08:36:48 51°20.379 2°49.922 9.2 249 9.6 101320 87
2002-11-18 08:36:53 51°20.394 2°49.907 9.3 251 9.6 101320 87
2002-11-18 08:36:58 51°20.41 2°49.891 9.4 251 9.6 101320 87
2002-11-18 08:37:02 51°20.423 2°49.878 9.5 252 9.6 101320 86
2002-11-18 08:37:08 51°20.442 2°49.858 9.5 253 9.6 101320 86
2002-11-18 08:37:13 51°20.457 2°49.842 9.8 249 9.7 101300 86
2002-11-18 08:37:18 51°20.473 2°49.826 10.4 249 9.7 101300 86
2002-11-18 08:37:23 51°20.489 2°49.808 10.1 250 9.7 101320 86
2002-11-18 08:37:28 51°20.504 2°49.791 10.2 247 9.7 101320 86
2002-11-18 08:37:33 51°20.519 2°49.773 10.3 246 9.8 101310 85
2002-11-18 08:37:38 51°20.534 2°49.755 9.8 247 9.8 101310 85
2002-11-18 08:37:42 51°20.546 2°49.74 10.6 248 9.8 101310 85
2002-11-18 08:37:48 51°20.563 2°49.716 10.3 248 9.8 101310 85
2002-11-18 08:37:53 51°20.577 2°49.696 10.3 247 9.8 101320 85
2002-11-18 08:37:58 51°20.592 2°49.676 9.7 250 9.8 101320 85
2002-11-18 08:38:02 51°20.604 2°49.66 9.6 247 9.8 101310 84
2002-11-18 08:38:08 51°20.62 2°49.636 9.7 245 9.8 101310 84
2002-11-18 08:38:13 51°20.634 2°49.614 10.4 246 9.8 101320 84
2002-11-18 08:38:18 51°20.648 2°49.593 10.5 246 9.8 101320 84
2002-11-18 08:38:23 51°20.662 2°49.572 10.2 248 9.9 101310 83
2002-11-18 08:38:28 51°20.676 2°49.551 10.5 247 9.9 101310 83
2002-11-18 08:38:33 51°20.69 2°49.529 9.6 247 9.9 101310 83
2002-11-18 08:38:38 51°20.703 2°49.507 10.9 246 9.9 101310 83
2002-11-18 08:38:42 51°20.714 2°49.49 10.8 246 9.9 101320 83
2002-11-18 08:38:48 51°20.731 2°49.464 10.3 247 9.9 101320 83
2002-11-18 08:38:53 51°20.745 2°49.442 10.6 248 10 101320 82
2002-11-18 08:38:58 51°20.758 2°49.42 10.2 246 10 101320 82
2002-11-18 08:39:02 51°20.769 2°49.403 10.4 244 10 101320 82
2002-11-18 08:39:08 51°20.786 2°49.377 9.7 243 10 101320 82
2002-11-18 08:39:13 51°20.8 2°49.356 10.3 244 10 101310 82
2002-11-18 08:39:18 51°20.813 2°49.334 9.8 248 10 101310 82
2002-11-18 08:39:23 51°20.827 2°49.311 9.2 243 10 101320 81
2002-11-18 08:39:28 51°20.841 2°49.289 9.9 244 10 101320 81
2002-11-18 08:39:33 51°20.854 2°49.267 9.3 243 10 101310 81
2002-11-18 08:39:38 51°20.868 2°49.246 10.3 248 10 101310 81
2002-11-18 08:39:42 51°20.879 2°49.229 10.6 243 10.2 101310 81
2002-11-18 08:39:48 51°20.896 2°49.204 11.1 243 10.2 101310 81
2002-11-18 08:39:53 51°20.91 2°49.183 10.4 243 10.1 101310 80
2002-11-18 08:39:57 51°20.922 2°49.166 9.1 243 10.1 101310 80
2002-11-18 08:40:02 51°20.936 2°49.145 9.6 245 10.1 101320 80
2002-11-18 08:40:08 51°20.953 2°49.12 9 244 10.1 101320 80
2002-11-18 08:40:13 51°20.967 2°49.1 9.4 248 10.1 101320 80
2002-11-18 08:40:18 51°20.982 2°49.08 9 246 10.1 101320 80
2002-11-18 08:40:23 51°20.997 2°49.061 9.2 245 10.3 101310 79
2002-11-18 08:40:28 51°21.011 2°49.041 10.3 245 10.3 101310 79
2002-11-18 08:40:33 51°21.026 2°49.023 9.3 246 10.1 101320 79
2002-11-18 08:40:38 51°21.042 2°49.006 10.8 248 10.1 101320 79
2002-11-18 08:40:42 51°21.054 2°48.992 10.6 250 10.1 101320 79
2002-11-18 08:40:48 51°21.073 2°48.972 10.5 247 10.1 101320 79
2002-11-18 08:40:53 51°21.09 2°48.957 10.1 251 10.2 101320 78
2002-11-18 08:40:58 51°21.106 2°48.942 9.9 252 10.2 101320 78
2002-11-18 08:41:02 51°21.119 2°48.932 10.5 252 10.2 101320 78
2002-11-18 08:41:08 51°21.139 2°48.915 9.1 251 10.2 101320 78
2002-11-18 08:41:13 51°21.156 2°48.903 9.7 249 10.2 101310 78
2002-11-18 08:41:18 51°21.173 2°48.89 10.1 249 10.2 101310 78
2002-11-18 08:41:23 51°21.191 2°48.879 9.9 252 10.2 101310 77
2002-11-18 08:41:27 51°21.205 2°48.871 9.3 254 10.2 101310 77
2002-11-18 08:41:33 51°21.226 2°48.862 8.7 254 10.2 101310 77
2002-11-18 08:41:37 51°21.24 2°48.857 8.9 253 10.2 101310 77
2002-11-18 08:41:41 51°21.255 2°48.853 9.1 253 10.2 101310 76
2002-11-18 08:41:47 51°21.276 2°48.847 8.7 251 10.2 101310 76
2002-11-18 08:41:53 51°21.297 2°48.843 8 252 10.2 101310 76
2002-11-18 08:41:57 51°21.312 2°48.84 8.9 252 10.2 101310 76
2002-11-18 08:42:03 51°21.333 2°48.835 8.7 251 10.2 101310 76
2002-11-18 08:42:07 51°21.348 2°48.833 8.5 251 10.2 101310 76
2002-11-18 08:42:13 51°21.369 2°48.828 9 250 10.2 101320 76
2002-11-18 08:42:17 51°21.384 2°48.825 8.6 252 10.2 101320 76
2002-11-18 08:42:21 51°21.398 2°48.822 8.4 250 10.2 101310 76
2002-11-18 08:42:27 51°21.42 2°48.817 8.4 250 10.2 101310 76
2002-11-18 08:42:33 51°21.441 2°48.813 8.3 253 10.2 101320 76
2002-11-18 08:42:38 51°21.459 2°48.809 8.5 253 10.2 101320 76
2002-11-18 08:42:42 51°21.473 2°48.806 8.4 248 10.2 101310 75
2002-11-18 08:42:48 51°21.495 2°48.801 7.8 251 10.2 101310 75
2002-11-18 08:42:53 51°21.513 2°48.797 8.4 249 10.2 101310 75
2002-11-18 08:42:58 51°21.531 2°48.794 8.1 251 10.2 101310 75
2002-11-18 08:43:02 51°21.545 2°48.791 8.2 246 10.2 101320 75
2002-11-18 08:43:08 51°21.567 2°48.786 7.4 252 10.2 101320 75
2002-11-18 08:43:13 51°21.585 2°48.782 7.7 249 10.3 101310 75
2002-11-18 08:43:18 51°21.602 2°48.778 8.2 249 10.3 101310 75
2002-11-18 08:43:22 51°21.617 2°48.775 8.2 251 10.3 101320 75
2002-11-18 08:43:28 51°21.638 2°48.77 8.1 249 10.3 101320 75
2002-11-18 08:43:33 51°21.656 2°48.766 8 249 10.3 101320 75
2002-11-18 08:43:38 51°21.674 2°48.761 8.8 249 10.3 101320 75
2002-11-18 08:43:44 51°21.696 2°48.757 8.3 252 10.3 101320 75
2002-11-18 08:43:49 51°21.714 2°48.753 9.1 254 10.3 101320 75
2002-11-18 08:43:54 51°21.732 2°48.749 8.8 252 10.3 101320 74
2002-11-18 08:43:59 51°21.75 2°48.746 8.6 247 10.3 101320 74
2002-11-18 08:44:04 51°21.768 2°48.741 8.7 247 10.3 101320 75
2002-11-18 08:44:09 51°21.786 2°48.737 9 245 10.3 101320 75
2002-11-18 08:44:14 51°21.804 2°48.732 9.3 247 10.3 101320 75
2002-11-18 08:44:18 51°21.818 2°48.729 9.4 244 10.3 101320 75
2002-11-18 08:44:24 51°21.84 2°48.724 9.3 244 10.3 101320 75
2002-11-18 08:44:29 51°21.858 2°48.72 9 249 10.3 101320 75
2002-11-18 08:44:34 51°21.876 2°48.716 9 242 10.3 101320 75
2002-11-18 08:44:38 51°21.89 2°48.713 8.8 255 10.3 101320 75
2002-11-18 08:44:44 51°21.912 2°48.708 8.9 249 10.3 101320 75
2002-11-18 08:44:49 51°21.93 2°48.704 7.9 251 10.3 101320 75
2002-11-18 08:44:54 51°21.948 2°48.7 8.4 252 10.3 101320 74
2002-11-18 08:44:59 51°21.966 2°48.695 8.9 249 10.3 101320 74
2002-11-18 08:45:04 51°21.984 2°48.692 9.5 254 10.3 101310 74
2002-11-18 08:45:09 51°22.002 2°48.688 10 254 10.3 101310 74
2002-11-18 08:45:14 51°22.02 2°48.684 9.4 254 10.3 101320 74
2002-11-18 08:45:19 51°22.038 2°48.68 9.6 254 10.3 101320 74
2002-11-18 08:45:24 51°22.056 2°48.676 8.8 254 10.3 101320 74
2002-11-18 08:45:29 51°22.074 2°48.672 9 253 10.3 101320 74
2002-11-18 08:45:34 51°22.092 2°48.668 8.8 251 10.3 101320 74
2002-11-18 08:45:38 51°22.107 2°48.664 9.5 255 10.3 101320 74
2002-11-18 08:45:43 51°22.125 2°48.66 8.9 257 10.3 101310 74
2002-11-18 08:45:49 51°22.147 2°48.655 9 257 10.3 101310 74
2002-11-18 08:45:53 51°22.161 2°48.652 9.4 255 10.3 101310 74
2002-11-18 08:45:59 51°22.182 2°48.647 9.8 251 10.3 101310 74
2002-11-18 08:46:04 51°22.201 2°48.644 9.9 247 10.3 101310 74
2002-11-18 08:46:09 51°22.219 2°48.639 9 252 10.3 101310 74
2002-11-18 08:46:13 51°22.233 2°48.638 9.3 248 10.3 101320 74
2002-11-18 08:46:18 51°22.251 2°48.633 9.3 255 10.3 101320 74
2002-11-18 08:46:23 51°22.269 2°48.63 8.5 251 10.4 101310 74
2002-11-18 08:46:28 51°22.287 2°48.626 8.6 254 10.4 101310 74
2002-11-18 08:46:34 51°22.309 2°48.621 9.2 249 10.3 101310 74
2002-11-18 08:46:37 51°22.32 2°48.619 9.4 259 10.3 101310 74
2002-11-18 08:46:43 51°22.341 2°48.612 8.5 248 10.4 101310 74
2002-11-18 08:46:48 51°22.359 2°48.609 10.2 257 10.4 101310 74
2002-11-18 08:46:53 51°22.377 2°48.604 9.3 255 10.3 101310 74
2002-11-18 08:46:57 51°22.391 2°48.601 9.4 256 10.3 101310 74
2002-11-18 08:47:03 51°22.412 2°48.595 9.5 255 10.4 101310 74
2002-11-18 08:47:08 51°22.43 2°48.591 8.4 257 10.4 101310 74
2002-11-18 08:47:13 51°22.448 2°48.587 8.3 256 10.4 101320 74
2002-11-18 08:47:18 51°22.465 2°48.582 7.9 256 10.4 101320 74
2002-11-18 08:47:22 51°22.48 2°48.578 8.3 255 10.4 101320 74
2002-11-18 08:47:28 51°22.501 2°48.575 8.1 257 10.4 101320 74
2002-11-18 08:47:33 51°22.519 2°48.573 7.9 257 10.4 101310 73
2002-11-18 08:47:38 51°22.536 2°48.571 8 257 10.4 101310 73
2002-11-18 08:47:42 51°22.551 2°48.569 9.1 255 10.4 101320 73
2002-11-18 08:47:48 51°22.572 2°48.568 9 255 10.4 101320 73
2002-11-18 08:47:53 51°22.59 2°48.566 8.5 255 10.4 101310 73
2002-11-18 08:47:58 51°22.608 2°48.564 9.1 258 10.4 101310 73
2002-11-18 08:48:01 51°22.618 2°48.563 8.6 259 10.4 101310 73
2002-11-18 08:48:08 51°22.643 2°48.561 8.8 256 10.4 101310 73
2002-11-18 08:48:13 51°22.661 2°48.559 8.7 257 10.4 101310 74
2002-11-18 08:48:18 51°22.679 2°48.557 8.8 255 10.4 101310 74
2002-11-18 08:48:21 51°22.689 2°48.556 8.8 253 10.4 101310 74
2002-11-18 08:48:28 51°22.714 2°48.554 9.6 251 10.4 101310 74
2002-11-18 08:48:33 51°22.732 2°48.551 9.2 255 10.4 101310 74
2002-11-18 08:48:38 51°22.75 2°48.549 9.1 256 10.4 101310 74
2002-11-18 08:48:42 51°22.764 2°48.547 9 258 10.4 101310 74
2002-11-18 08:48:48 51°22.785 2°48.545 9.7 259 10.4 101310 74
2002-11-18 08:48:53 51°22.803 2°48.543 9.3 258 10.4 101310 74
2002-11-18 08:48:57 51°22.818 2°48.541 9.2 259 10.4 101310 74
2002-11-18 08:49:01 51°22.832 2°48.54 9.2 258 10.4 101310 74
2002-11-18 08:49:07 51°22.853 2°48.537 9.3 258 10.4 101310 74
2002-11-18 08:49:13 51°22.874 2°48.534 8.5 257 10.4 101310 73
2002-11-18 08:49:17 51°22.888 2°48.533 8.6 258 10.4 101310 73
2002-11-18 08:49:21 51°22.903 2°48.531 9 259 10.4 101300 73
2002-11-18 08:49:27 51°22.924 2°48.528 9.2 257 10.4 101300 73
2002-11-18 08:49:33 51°22.945 2°48.526 9 255 10.4 101310 73
2002-11-18 08:49:37 51°22.96 2°48.524 8.7 256 10.4 101310 73
2002-11-18 08:49:41 51°22.974 2°48.522 8.4 256 10.5 101310 73
2002-11-18 08:49:47 51°22.996 2°48.519 8.8 256 10.5 101310 73
2002-11-18 08:49:53 51°23.017 2°48.516 7.9 256 10.4 101310 73
2002-11-18 08:49:57 51°23.031 2°48.515 8.6 260 10.4 101310 73
2002-11-18 08:50:02 51°23.049 2°48.513 8.3 259 10.4 101320 73
2002-11-18 08:50:07 51°23.067 2°48.511 7.8 260 10.4 101320 73
2002-11-18 08:50:13 51°23.088 2°48.508 8.3 261 10.4 101310 72
2002-11-18 08:50:17 51°23.102 2°48.507 8.5 261 10.4 101310 72
2002-11-18 08:50:21 51°23.116 2°48.505 8.2 261 10.4 101320 72
2002-11-18 08:50:27 51°23.138 2°48.503 7.5 259 10.4 101320 72
2002-11-18 08:50:33 51°23.159 2°48.5 7.5 257 10.4 101310 73
2002-11-18 08:50:37 51°23.173 2°48.499 7.8 257 10.4 101310 73
2002-11-18 08:50:41 51°23.188 2°48.497 8.5 258 10.4 101310 73
2002-11-18 08:50:47 51°23.209 2°48.495 8.6 253 10.4 101310 73
2002-11-18 08:50:53 51°23.231 2°48.494 9.1 253 10.4 101320 72
2002-11-18 08:50:57 51°23.245 2°48.493 8.9 254 10.4 101320 72
2002-11-18 08:51:01 51°23.26 2°48.492 8.9 253 10.4 101320 72
2002-11-18 08:51:07 51°23.281 2°48.492 9.1 256 10.4 101320 72
2002-11-18 08:51:13 51°23.302 2°48.49 9.1 255 10.4 101320 73
2002-11-18 08:51:17 51°23.317 2°48.489 9.1 255 10.4 101320 73
2002-11-18 08:51:21 51°23.331 2°48.488 9 256 10.4 101310 73
2002-11-18 08:51:27 51°23.352 2°48.487 9.1 251 10.4 101310 73
2002-11-18 08:51:33 51°23.374 2°48.486 9.3 252 10.4 101310 73
2002-11-18 08:51:37 51°23.388 2°48.485 9.2 251 10.4 101310 73
2002-11-18 08:51:41 51°23.402 2°48.485 9.8 254 10.4 101310 72
2002-11-18 08:51:47 51°23.424 2°48.483 8.9 254 10.4 101310 72
2002-11-18 08:51:53 51°23.445 2°48.481 9.3 254 10.4 101310 72
2002-11-18 08:51:57 51°23.46 2°48.48 8.7 251 10.4 101310 72
2002-11-18 08:52:01 51°23.474 2°48.48 8.7 253 10.4 101310 72
2002-11-18 08:52:07 51°23.495 2°48.479 8.1 250 10.4 101310 72
2002-11-18 08:52:13 51°23.516 2°48.478 9 253 10.4 101320 72
2002-11-18 08:52:17 51°23.531 2°48.478 9.1 252 10.4 101320 72
2002-11-18 08:52:21 51°23.545 2°48.476 8.9 256 10.4 101310 72
2002-11-18 08:52:27 51°23.567 2°48.475 8.1 257 10.4 101310 72
2002-11-18 08:52:33 51°23.588 2°48.475 9 253 10.4 101310 72
2002-11-18 08:52:37 51°23.602 2°48.474 9.6 256 10.4 101310 72
2002-11-18 08:52:42 51°23.62 2°48.474 9.7 260 10.4 101310 72
2002-11-18 08:52:47 51°23.638 2°48.474 9.3 258 10.4 101310 72
2002-11-18 08:52:53 51°23.659 2°48.473 9.1 256 10.4 101310 72
2002-11-18 08:52:58 51°23.677 2°48.473 9.3 258 10.4 101310 72
2002-11-18 08:53:01 51°23.688 2°48.473 8.6 255 10.4 101320 72
2002-11-18 08:53:07 51°23.709 2°48.473 8.5 255 10.4 101320 72
2002-11-18 08:53:13 51°23.731 2°48.473 8.7 257 10.4 101310 72
2002-11-18 08:53:17 51°23.745 2°48.473 9.4 257 10.4 101310 72
2002-11-18 08:53:21 51°23.759 2°48.473 8.5 257 10.4 101310 72
2002-11-18 08:53:27 51°23.781 2°48.473 8.3 256 10.4 101310 72
2002-11-18 08:53:33 51°23.802 2°48.473 8.8 256 10.4 101320 72
2002-11-18 08:53:37 51°23.817 2°48.473 8.3 255 10.4 101320 72
2002-11-18 08:53:41 51°23.831 2°48.473 8.9 253 10.4 101320 71
2002-11-18 08:53:47 51°23.853 2°48.473 8.9 257 10.4 101320 71
2002-11-18 08:53:53 51°23.875 2°48.473 9 257 10.4 101320 71
2002-11-18 08:53:57 51°23.889 2°48.473 8.8 253 10.4 101320 71
2002-11-18 08:54:03 51°23.91 2°48.474 8.4 254 10.4 101310 71
2002-11-18 08:54:08 51°23.928 2°48.472 8.7 255 10.4 101310 71
2002-11-18 08:54:12 51°23.943 2°48.473 9 257 10.4 101320 71
2002-11-18 08:54:17 51°23.961 2°48.472 8.6 255 10.4 101320 71
2002-11-18 08:54:21 51°23.975 2°48.473 8.2 257 10.4 101320 71
2002-11-18 08:54:27 51°23.997 2°48.472 8.3 254 10.4 101320 71
2002-11-18 08:54:33 51°24.018 2°48.473 8.1 254 10.4 101310 71
2002-11-18 08:54:37 51°24.033 2°48.473 8.6 255 10.4 101310 71
2002-11-18 08:54:43 51°24.054 2°48.474 9.1 256 10.4 101320 71
2002-11-18 08:54:47 51°24.069 2°48.473 8.2 256 10.4 101320 71
2002-11-18 08:54:53 51°24.09 2°48.474 8.3 256 10.4 101320 71
2002-11-18 08:54:57 51°24.105 2°48.473 8.4 253 10.4 101320 71
2002-11-18 08:55:01 51°24.119 2°48.473 7.7 255 10.4 101320 71
2002-11-18 08:55:07 51°24.141 2°48.474 7.5 252 10.4 101320 71
2002-11-18 08:55:12 51°24.159 2°48.474 7.9 258 10.4 101310 71
2002-11-18 08:55:17 51°24.177 2°48.474 7.6 255 10.4 101310 71
2002-11-18 08:55:21 51°24.191 2°48.474 7.4 256 10.4 101310 71
2002-11-18 08:55:27 51°24.213 2°48.475 7.4 254 10.4 101310 71
2002-11-18 08:55:33 51°24.235 2°48.476 7.4 253 10.4 101320 71
2002-11-18 08:55:37 51°24.249 2°48.476 6.9 252 10.4 101320 71
2002-11-18 08:55:41 51°24.264 2°48.476 8 255 10.4 101320 71
2002-11-18 08:55:47 51°24.286 2°48.477 8.7 257 10.4 101320 71
2002-11-18 08:55:53 51°24.307 2°48.477 8.6 256 10.4 101320 71
2002-11-18 08:55:57 51°24.322 2°48.477 7.8 257 10.4 101320 71
2002-11-18 08:56:01 51°24.336 2°48.476 7.5 255 10.4 101320 71
2002-11-18 08:56:07 51°24.358 2°48.476 8.5 254 10.4 101320 71
2002-11-18 08:56:12 51°24.376 2°48.476 8.6 257 10.4 101320 71
2002-11-18 08:56:17 51°24.394 2°48.476 7.8 256 10.4 101320 71
2002-11-18 08:56:21 51°24.409 2°48.477 7.9 265 10.4 101320 71
2002-11-18 08:56:27 51°24.431 2°48.477 8 252 10.4 101320 71
2002-11-18 08:56:33 51°24.452 2°48.478 8.3 256 10.4 101320 71
2002-11-18 08:56:37 51°24.467 2°48.478 8.6 257 10.4 101320 71
2002-11-18 08:56:41 51°24.481 2°48.478 8.1 258 10.4 101320 71
2002-11-18 08:56:47 51°24.503 2°48.479 9.5 258 10.4 101320 71
2002-11-18 08:56:53 51°24.524 2°48.479 9.4 256 10.4 101310 71
2002-11-18 08:56:57 51°24.539 2°48.479 8.9 258 10.4 101310 71
2002-11-18 08:57:01 51°24.553 2°48.479 9.9 255 10.4 101320 71
2002-11-18 08:57:08 51°24.579 2°48.48 8.7 257 10.4 101320 71
2002-11-18 08:57:13 51°24.597 2°48.48 8.8 252 10.4 101320 71
2002-11-18 08:57:18 51°24.615 2°48.481 9.9 257 10.4 101320 71
2002-11-18 08:57:23 51°24.633 2°48.481 10 254 10.4 101310 71
2002-11-18 08:57:29 51°24.655 2°48.482 9.9 257 10.4 101310 71
2002-11-18 08:57:33 51°24.669 2°48.482 9.4 254 10.4 101310 70
2002-11-18 08:57:38 51°24.687 2°48.482 9.1 256 10.4 101310 70
2002-11-18 08:57:43 51°24.705 2°48.481 10 258 10.4 101310 70
2002-11-18 08:57:48 51°24.724 2°48.481 9.4 259 10.4 101310 70
2002-11-18 08:57:53 51°24.742 2°48.481 9.3 260 10.4 101320 70
2002-11-18 08:57:57 51°24.756 2°48.482 8.4 256 10.4 101320 70
2002-11-18 08:58:03 51°24.778 2°48.481 8.5 251 10.4 101310 70
2002-11-18 08:58:08 51°24.796 2°48.482 9.1 259 10.4 101310 70
2002-11-18 08:58:13 51°24.815 2°48.482 9.4 258 10.4 101310 70
2002-11-18 08:58:18 51°24.833 2°48.482 8.9 252 10.4 101310 70
2002-11-18 08:58:23 51°24.851 2°48.482 9.7 252 10.4 101310 70
2002-11-18 08:58:28 51°24.869 2°48.482 9.6 257 10.4 101310 70
2002-11-18 08:58:33 51°24.887 2°48.483 9.5 255 10.5 101310 70
2002-11-18 08:58:38 51°24.905 2°48.483 9.1 252 10.5 101310 70
2002-11-18 08:58:43 51°24.923 2°48.483 9.2 253 10.5 101310 70
2002-11-18 08:58:48 51°24.941 2°48.484 10 252 10.5 101310 70
2002-11-18 08:58:53 51°24.959 2°48.484 9.3 251 10.5 101310 70
2002-11-18 08:58:57 51°24.974 2°48.485 10.4 254 10.5 101310 70
2002-11-18 08:59:03 51°24.995 2°48.485 9.9 254 10.5 101310 70
2002-11-18 08:59:08 51°25.013 2°48.485 9.2 252 10.5 101310 70
2002-11-18 08:59:14 51°25.035 2°48.485 9.2 256 10.5 101310 69
2002-11-18 08:59:18 51°25.05 2°48.486 9.4 251 10.5 101310 69
2002-11-18 08:59:23 51°25.068 2°48.486 9.1 251 10.5 101310 70
2002-11-18 08:59:28 51°25.086 2°48.486 9.9 248 10.5 101310 70
2002-11-18 08:59:33 51°25.104 2°48.487 9.9 252 10.5 101310 69
2002-11-18 08:59:38 51°25.122 2°48.487 9 251 10.5 101310 69
2002-11-18 08:59:43 51°25.14 2°48.486 8.7 251 10.5 101310 69
2002-11-18 08:59:48 51°25.159 2°48.486 9.4 251 10.5 101310 69
2002-11-18 08:59:53 51°25.177 2°48.486 8.6 252 10.5 101310 69
2002-11-18 08:59:58 51°25.195 2°48.486 8.9 251 10.5 101310 69
2002-11-18 09:00:03 51°25.213 2°48.487 8.5 249 10.5 101310 69
2002-11-18 09:00:08 51°25.232 2°48.487 7.5 251 10.5 101310 69
2002-11-18 09:00:13 51°25.25 2°48.487 7.8 251 10.5 101310 69
2002-11-18 09:00:18 51°25.268 2°48.487 9.5 255 10.5 101310 69
2002-11-18 09:00:23 51°25.286 2°48.488 9.3 256 10.5 101310 69
2002-11-18 09:00:28 51°25.304 2°48.488 9.6 255 10.5 101310 69
2002-11-18 09:00:33 51°25.322 2°48.489 9.7 253 10.5 101310 68
2002-11-18 09:00:38 51°25.34 2°48.489 9.1 254 10.5 101310 68
2002-11-18 09:00:43 51°25.359 2°48.489 9.6 256 10.5 101320 69
2002-11-18 09:00:48 51°25.377 2°48.489 9.1 257 10.5 101320 69
2002-11-18 09:00:53 51°25.395 2°48.49 8.8 253 10.5 101310 69
2002-11-18 09:00:58 51°25.413 2°48.49 9 250 10.5 101310 69
2002-11-18 09:01:03 51°25.431 2°48.491 9.2 250 10.5 101310 69
2002-11-18 09:01:08 51°25.449 2°48.491 9.6 252 10.5 101310 69
2002-11-18 09:01:13 51°25.468 2°48.492 8.8 251 10.5 101310 69
2002-11-18 09:01:18 51°25.486 2°48.492 7.9 253 10.5 101310 69
2002-11-18 09:01:23 51°25.504 2°48.493 8.2 252 10.5 101310 69
2002-11-18 09:01:28 51°25.521 2°48.493 8.5 256 10.5 101310 69
2002-11-18 09:01:33 51°25.539 2°48.494 8 252 10.5 101310 69
2002-11-18 09:01:38 51°25.557 2°48.495 8 252 10.5 101310 69
2002-11-18 09:01:43 51°25.574 2°48.495 8 248 10.5 101310 69
2002-11-18 09:01:48 51°25.59 2°48.495 7.6 256 10.5 101310 69
2002-11-18 09:01:53 51°25.606 2°48.496 7.1 259 10.5 101310 70
2002-11-18 09:01:58 51°25.621 2°48.497 7.1 258 10.5 101310 70
2002-11-18 09:02:03 51°25.635 2°48.498 7.3 259 10.6 101320 70
2002-11-18 09:02:08 51°25.649 2°48.498 7.3 263 10.6 101320 70
2002-11-18 09:02:13 51°25.662 2°48.499 6.6 262 10.6 101320 70
2002-11-18 09:02:17 51°25.672 2°48.5 7 260 10.6 101320 70
2002-11-18 09:02:23 51°25.687 2°48.5 7.5 260 10.5 101320 70
2002-11-18 09:02:28 51°25.699 2°48.5 7.4 261 10.5 101320 70
2002-11-18 09:02:33 51°25.711 2°48.501 7.1 261 10.6 101320 69
2002-11-18 09:02:37 51°25.72 2°48.503 6.5 267 10.6 101320 69
2002-11-18 09:02:43 51°25.733 2°48.506 6.3 269 10.6 101310 69
2002-11-18 09:02:48 51°25.744 2°48.51 6.1 272 10.6 101310 69
2002-11-18 09:02:53 51°25.755 2°48.515 5.8 271 10.5 101310 69
2002-11-18 09:02:57 51°25.763 2°48.52 5.6 270 10.5 101310 69
2002-11-18 09:03:03 51°25.775 2°48.527 5.3 279 10.5 101320 69
2002-11-18 09:03:08 51°25.785 2°48.534 5.7 270 10.5 101320 69
2002-11-18 09:03:13 51°25.794 2°48.541 4.9 272 10.6 101320 68
2002-11-18 09:03:18 51°25.804 2°48.548 5 268 10.6 101320 68
2002-11-18 09:03:23 51°25.813 2°48.555 5.5 272 10.6 101320 68
2002-11-18 09:03:28 51°25.822 2°48.563 5.7 269 10.6 101320 68
2002-11-18 09:03:33 51°25.832 2°48.57 6.5 275 10.6 101330 69
2002-11-18 09:03:38 51°25.841 2°48.576 6.2 273 10.6 101330 69
2002-11-18 09:03:43 51°25.851 2°48.582 6.1 274 10.6 101330 69
2002-11-18 09:03:48 51°25.86 2°48.588 5.7 273 10.6 101330 69
2002-11-18 09:03:53 51°25.87 2°48.594 5.8 278 10.6 101330 69
2002-11-18 09:03:58 51°25.879 2°48.6 5.7 273 10.6 101330 69
2002-11-18 09:04:03 51°25.889 2°48.605 5.5 272 10.6 101330 69
2002-11-18 09:04:08 51°25.899 2°48.611 4.7 272 10.6 101330 69
2002-11-18 09:04:13 51°25.908 2°48.616 4.5 274 10.6 101320 69
2002-11-18 09:04:18 51°25.918 2°48.621 4.8 272 10.6 101320 69
2002-11-18 09:04:23 51°25.928 2°48.626 5.7 268 10.6 101330 68
2002-11-18 09:04:29 51°25.939 2°48.632 5.9 269 10.6 101330 68
2002-11-18 09:04:33 51°25.947 2°48.635 6 276 10.6 101330 68
2002-11-18 09:04:38 51°25.956 2°48.64 5.6 273 10.6 101330 68
2002-11-18 09:04:43 51°25.965 2°48.643 5.6 274 10.6 101330 68
2002-11-18 09:04:49 51°25.975 2°48.647 5.4 273 10.6 101330 68
2002-11-18 09:04:53 51°25.981 2°48.649 4.8 277 10.6 101320 68
2002-11-18 09:04:58 51°25.989 2°48.652 4.7 274 10.6 101320 68
2002-11-18 09:05:03 51°25.996 2°48.653 4.5 275 10.6 101320 68
2002-11-18 09:05:09 51°26.003 2°48.654 4.3 270 10.6 101320 68
2002-11-18 09:05:13 51°26.008 2°48.654 4.3 271 10.6 101330 68
2002-11-18 09:05:19 51°26.015 2°48.653 4.1 269 10.6 101330 68
2002-11-18 09:05:24 51°26.02 2°48.651 3.9 272 10.6 101330 68
2002-11-18 09:05:29 51°26.025 2°48.649 4.1 270 10.6 101330 68
2002-11-18 09:05:33 51°26.029 2°48.648 4.3 271 10.6 101330 68
2002-11-18 09:05:39 51°26.034 2°48.644 4.3 267 10.6 101330 68
2002-11-18 09:05:43 51°26.037 2°48.642 4.3 264 10.6 101330 68
2002-11-18 09:05:49 51°26.042 2°48.639 4 267 10.6 101330 68
2002-11-18 09:05:53 51°26.045 2°48.637 4.5 267 10.6 101330 68
2002-11-18 09:05:59 51°26.049 2°48.633 4.1 267 10.6 101330 68
2002-11-18 09:06:03 51°26.051 2°48.63 4 267 10.6 101330 68
2002-11-18 09:06:09 51°26.055 2°48.627 3.7 268 10.6 101330 68
2002-11-18 09:06:13 51°26.057 2°48.624 3.8 266 10.6 101320 68
2002-11-18 09:06:17 51°26.058 2°48.622 3.9 264 10.6 101320 68
2002-11-18 09:06:23 51°26.061 2°48.618 3.6 266 10.6 101330 68
2002-11-18 09:06:29 51°26.064 2°48.614 4.1 269 10.6 101330 68
2002-11-18 09:06:33 51°26.065 2°48.612 3.9 269 10.6 101330 68
2002-11-18 09:06:39 51°26.068 2°48.608 3.6 266 10.6 101330 68
2002-11-18 09:06:43 51°26.069 2°48.606 3.7 266 10.6 101330 69
2002-11-18 09:06:49 51°26.071 2°48.602 3.6 269 10.6 101330 69
2002-11-18 09:06:54 51°26.073 2°48.598 3.7 267 10.6 101330 69
2002-11-18 09:06:59 51°26.074 2°48.595 3.4 266 10.6 101330 69
2002-11-18 09:07:03 51°26.075 2°48.593 3.6 265 10.6 101330 68
2002-11-18 09:07:09 51°26.076 2°48.589 3.6 269 10.6 101330 68
2002-11-18 09:07:14 51°26.077 2°48.586 3.4 257 10.6 101330 68
2002-11-18 09:07:19 51°26.079 2°48.583 3.5 265 10.6 101330 68
2002-11-18 09:07:23 51°26.08 2°48.581 3.2 263 10.6 101330 68
2002-11-18 09:07:29 51°26.081 2°48.577 3.1 253 10.6 101330 68
2002-11-18 09:07:33 51°26.082 2°48.575 3.2 251 10.6 101330 68
2002-11-18 09:07:39 51°26.082 2°48.571 3.5 249 10.6 101330 68
2002-11-18 09:07:43 51°26.083 2°48.569 3.2 252 10.6 101330 68
2002-11-18 09:07:49 51°26.084 2°48.565 4.3 250 10.6 101330 68
2002-11-18 09:07:53 51°26.084 2°48.562 3.9 251 10.6 101330 69
2002-11-18 09:07:59 51°26.085 2°48.559 4 249 10.6 101330 69
2002-11-18 09:08:03 51°26.085 2°48.557 4.1 247 10.6 101330 69
2002-11-18 09:08:09 51°26.085 2°48.553 3.7 241 10.6 101330 69
2002-11-18 09:08:13 51°26.085 2°48.551 3.8 241 10.6 101330 69
2002-11-18 09:08:19 51°26.085 2°48.547 3.5 236 10.6 101330 69
2002-11-18 09:08:23 51°26.086 2°48.545 3.5 240 10.6 101330 69
2002-11-18 09:08:29 51°26.086 2°48.542 3 234 10.6 101330 69
2002-11-18 09:08:33 51°26.086 2°48.539 3.2 234 10.6 101330 68
2002-11-18 09:08:39 51°26.086 2°48.536 3.4 229 10.6 101330 68
2002-11-18 09:08:43 51°26.086 2°48.534 3.5 236 10.6 101330 68
2002-11-18 09:08:49 51°26.085 2°48.53 3.5 232 10.6 101330 68
2002-11-18 09:08:53 51°26.085 2°48.528 3 239 10.6 101330 68
2002-11-18 09:08:59 51°26.085 2°48.525 3.3 237 10.6 101330 68
2002-11-18 09:09:03 51°26.085 2°48.523 2.9 239 10.6 101330 68
2002-11-18 09:09:09 51°26.085 2°48.52 3.5 233 10.6 101330 68
2002-11-18 09:09:14 51°26.084 2°48.518 3.1 241 10.6 101330 68
2002-11-18 09:09:17 51°26.084 2°48.516 3.8 240 10.6 101330 68
2002-11-18 09:09:21 51°26.084 2°48.515 4 237 10.6 101330 68
2002-11-18 09:09:27 51°26.083 2°48.512 3.5 246 10.6 101330 68
2002-11-18 09:09:33 51°26.083 2°48.51 3.5 246 10.6 101330 68
2002-11-18 09:09:38 51°26.082 2°48.508 3.1 236 10.6 101330 68
2002-11-18 09:09:42 51°26.082 2°48.506 2.9 247 10.6 101330 68
2002-11-18 09:09:47 51°26.082 2°48.504 3 234 10.6 101330 68
2002-11-18 09:09:53 51°26.08 2°48.502 3.2 235 10.6 101330 68
2002-11-18 09:09:57 51°26.08 2°48.501 3.3 232 10.6 101330 68
2002-11-18 09:10:03 51°26.079 2°48.499 3.2 226 10.6 101330 67
2002-11-18 09:10:07 51°26.079 2°48.498 3.2 235 10.6 101330 67
2002-11-18 09:10:13 51°26.079 2°48.494 3.2 227 10.6 101330 67
2002-11-18 09:10:17 51°26.078 2°48.493 3.4 233 10.6 101330 67
2002-11-18 09:10:21 51°26.078 2°48.492 3.1 229 10.5 101340 67
2002-11-18 09:10:29 51°26.077 2°48.489 2.8 228 10.5 101340 67
2002-11-18 09:10:33 51°26.076 2°48.488 2.8 228 10.6 101340 67
2002-11-18 09:10:38 51°26.075 2°48.486 3 228 10.6 101340 67
2002-11-18 09:10:43 51°26.075 2°48.485 2.6 226 10.5 101330 67
2002-11-18 09:10:49 51°26.074 2°48.483 2.7 231 10.5 101330 67
2002-11-18 09:10:53 51°26.073 2°48.481 2.6 226 10.6 101330 67
2002-11-18 09:10:59 51°26.073 2°48.479 2.7 221 10.6 101330 67
2002-11-18 09:11:03 51°26.072 2°48.479 2.7 224 10.6 101340 67
2002-11-18 09:11:09 51°26.071 2°48.477 3.1 222 10.6 101340 67
2002-11-18 09:11:14 51°26.07 2°48.476 3.2 217 10.6 101340 67
2002-11-18 09:11:19 51°26.07 2°48.474 3.3 222 10.6 101340 67
2002-11-18 09:11:23 51°26.069 2°48.473 3.1 223 10.6 101330 67
2002-11-18 09:11:29 51°26.068 2°48.472 2.8 222 10.6 101330 67
2002-11-18 09:11:33 51°26.067 2°48.471 2.8 217 10.6 101340 67
2002-11-18 09:11:39 51°26.066 2°48.469 2.9 220 10.6 101340 67
2002-11-18 09:11:43 51°26.066 2°48.468 2.9 214 10.6 101340 67
2002-11-18 09:11:49 51°26.065 2°48.466 2.9 225 10.6 101340 67
2002-11-18 09:11:53 51°26.064 2°48.466 3.2 219 10.6 101330 67
2002-11-18 09:11:59 51°26.063 2°48.464 3.1 220 10.6 101330 67
2002-11-18 09:12:03 51°26.063 2°48.463 3.2 207 10.6 101340 67
2002-11-18 09:12:09 51°26.061 2°48.462 3 212 10.6 101340 67
2002-11-18 09:12:14 51°26.061 2°48.461 2.8 212 10.6 101340 68
2002-11-18 09:12:19 51°26.06 2°48.46 2.9 210 10.6 101340 68
2002-11-18 09:12:23 51°26.059 2°48.459 3.2 226 10.6 101340 68
2002-11-18 09:12:29 51°26.058 2°48.458 3 221 10.6 101340 68
2002-11-18 09:12:33 51°26.058 2°48.457 2.9 219 10.6 101340 68
2002-11-18 09:12:39 51°26.057 2°48.456 2.7 213 10.6 101340 68
2002-11-18 09:12:43 51°26.056 2°48.455 2.6 216 10.6 101330 68
2002-11-18 09:12:49 51°26.055 2°48.454 2.4 221 10.6 101330 68
2002-11-18 09:12:53 51°26.054 2°48.453 2.3 224 10.6 101340 68
2002-11-18 09:12:59 51°26.053 2°48.453 2.5 230 10.6 101340 68
2002-11-18 09:13:03 51°26.052 2°48.452 2.6 221 10.6 101340 68
2002-11-18 09:13:09 51°26.051 2°48.451 2.3 225 10.6 101340 68
2002-11-18 09:13:13 51°26.051 2°48.451 2.6 217 10.6 101340 68
2002-11-18 09:13:19 51°26.05 2°48.45 2.8 225 10.6 101340 68
2002-11-18 09:13:23 51°26.049 2°48.449 2.9 221 10.6 101340 68
2002-11-18 09:13:29 51°26.048 2°48.449 3.2 222 10.6 101340 68
2002-11-18 09:13:33 51°26.047 2°48.448 3.3 226 10.6 101340 69
2002-11-18 09:13:38 51°26.046 2°48.448 3.5 222 10.6 101340 69
2002-11-18 09:13:44 51°26.045 2°48.448 3.1 214 10.6 101340 69
2002-11-18 09:13:49 51°26.044 2°48.447 3 224 10.6 101340 69
2002-11-18 09:13:53 51°26.044 2°48.447 3 208 10.6 101340 69
2002-11-18 09:13:57 51°26.043 2°48.446 2.8 212 10.6 101340 69
2002-11-18 09:14:03 51°26.042 2°48.446 2.9 217 10.6 101340 69
2002-11-18 09:14:07 51°26.041 2°48.446 3 219 10.6 101340 69
2002-11-18 09:14:13 51°26.04 2°48.445 3.2 215 10.6 101340 68
2002-11-18 09:14:17 51°26.039 2°48.445 2.7 207 10.6 101340 68
2002-11-18 09:14:21 51°26.038 2°48.445 2.3 213 10.6 101330 68
2002-11-18 09:14:27 51°26.037 2°48.445 2.2 214 10.6 101330 68
2002-11-18 09:14:33 51°26.037 2°48.444 2.3 215 10.6 101340 68
2002-11-18 09:14:37 51°26.036 2°48.444 2.4 209 10.6 101340 68
2002-11-18 09:14:41 51°26.035 2°48.444 3.2 209 10.6 101340 68
2002-11-18 09:14:47 51°26.034 2°48.444 3.1 201 10.6 101340 68
2002-11-18 09:14:53 51°26.033 2°48.444 2.8 205 10.6 101340 68
2002-11-18 09:14:59 51°26.032 2°48.444 3.3 202 10.6 101340 68
2002-11-18 09:15:03 51°26.031 2°48.444 3.3 207 10.6 101340 69
2002-11-18 09:15:09 51°26.03 2°48.444 3 207 10.6 101340 69
2002-11-18 09:15:13 51°26.029 2°48.444 3.7 203 10.6 101340 69
2002-11-18 09:15:19 51°26.028 2°48.444 3.1 196 10.6 101340 69
2002-11-18 09:15:23 51°26.028 2°48.444 2.9 195 10.6 101340 69
2002-11-18 09:15:29 51°26.026 2°48.444 2.9 191 10.6 101340 69
2002-11-18 09:15:33 51°26.026 2°48.444 2.7 191 10.6 101340 68
2002-11-18 09:15:38 51°26.025 2°48.444 2.3 186 10.6 101340 68
2002-11-18 09:15:43 51°26.024 2°48.444 2.9 183 10.5 101340 68
2002-11-18 09:15:49 51°26.023 2°48.445 2.7 178 10.5 101340 68
2002-11-18 09:15:53 51°26.022 2°48.445 2.4 180 10.6 101340 68
2002-11-18 09:15:59 51°26.021 2°48.446 3.1 176 10.6 101340 68
2002-11-18 09:16:03 51°26.02 2°48.446 2.3 177 10.5 101350 68
2002-11-18 09:16:09 51°26.019 2°48.447 3.2 171 10.5 101350 68
2002-11-18 09:16:13 51°26.019 2°48.447 2.8 171 10.6 101340 68
2002-11-18 09:16:19 51°26.018 2°48.447 2.8 176 10.6 101340 68
2002-11-18 09:16:23 51°26.017 2°48.448 2.7 178 10.6 101340 68
2002-11-18 09:16:29 51°26.016 2°48.448 3.4 174 10.6 101340 68
2002-11-18 09:16:33 51°26.015 2°48.448 3 171 10.6 101350 69
2002-11-18 09:16:39 51°26.014 2°48.449 2.8 168 10.6 101350 69
2002-11-18 09:16:43 51°26.013 2°48.45 3.4 168 10.6 101350 69
2002-11-18 09:16:49 51°26.012 2°48.45 2.7 174 10.6 101350 69
2002-11-18 09:16:54 51°26.012 2°48.45 3.2 173 10.6 101340 69
2002-11-18 09:16:59 51°26.011 2°48.451 3.1 175 10.6 101340 69
2002-11-18 09:17:04 51°26.01 2°48.451 2.8 175 10.6 101340 69
2002-11-18 09:17:09 51°26.009 2°48.451 2.4 176 10.6 101340 69
2002-11-18 09:17:14 51°26.009 2°48.452 3 157 10.6 101350 69
2002-11-18 09:17:19 51°26.008 2°48.453 2.8 157 10.6 101350 69
2002-11-18 09:17:24 51°26.007 2°48.453 3 161 10.6 101350 69
2002-11-18 09:17:29 51°26.007 2°48.454 2.7 159 10.6 101350 69
2002-11-18 09:17:34 51°26.006 2°48.455 2.9 165 10.6 101350 69
2002-11-18 09:17:39 51°26.006 2°48.456 2.7 171 10.6 101350 69
2002-11-18 09:17:44 51°26.006 2°48.457 2.8 169 10.6 101350 69
2002-11-18 09:17:49 51°26.005 2°48.459 3.1 174 10.6 101350 69
2002-11-18 09:17:53 51°26.005 2°48.459 3.4 172 10.6 101350 69
2002-11-18 09:17:57 51°26.005 2°48.46 2.9 173 10.6 101350 69
2002-11-18 09:18:03 51°26.004 2°48.462 3.3 165 10.6 101350 69
2002-11-18 09:18:08 51°26.004 2°48.463 3.7 166 10.6 101350 69
2002-11-18 09:18:14 51°26.004 2°48.464 3.2 168 10.6 101350 70
2002-11-18 09:18:19 51°26.004 2°48.464 3.5 164 10.6 101350 70
2002-11-18 09:18:23 51°26.003 2°48.465 3.1 165 10.6 101350 70
2002-11-18 09:18:29 51°26.003 2°48.466 3.4 159 10.6 101350 70
2002-11-18 09:18:34 51°26.002 2°48.466 3.6 153 10.6 101350 71
2002-11-18 09:18:39 51°26.002 2°48.467 3.2 147 10.6 101350 71
2002-11-18 09:18:44 51°26.001 2°48.468 2.8 149 10.6 101350 70
2002-11-18 09:18:49 51°26.001 2°48.468 3.2 148 10.6 101350 70
2002-11-18 09:18:54 51°26.001 2°48.469 3.1 142 10.6 101350 70
2002-11-18 09:18:59 51°26 2°48.469 3.3 139 10.6 101350 70
2002-11-18 09:19:04 51°25.999 2°48.47 2.8 139 10.6 101350 70
2002-11-18 09:19:09 51°25.999 2°48.47 2.9 137 10.6 101350 70
2002-11-18 09:19:14 51°25.998 2°48.471 2.8 139 10.6 101350 71
2002-11-18 09:19:18 51°25.998 2°48.471 2.9 137 10.6 101350 71
2002-11-18 09:19:24 51°25.997 2°48.471 3 135 10.6 101350 71
2002-11-18 09:19:29 51°25.996 2°48.471 2.7 133 10.6 101350 71
2002-11-18 09:19:34 51°25.995 2°48.471 2.6 128 10.6 101350 70
2002-11-18 09:19:39 51°25.995 2°48.471 2.7 123 10.6 101350 70
2002-11-18 09:19:44 51°25.994 2°48.472 2.9 122 10.6 101350 70
2002-11-18 09:19:49 51°25.993 2°48.472 2.5 119 10.6 101350 70
2002-11-18 09:19:54 51°25.992 2°48.472 2.6 119 10.6 101360 71
2002-11-18 09:19:59 51°25.991 2°48.473 2.4 118 10.6 101360 71
2002-11-18 09:20:04 51°25.99 2°48.473 2.1 123 10.6 101350 70
2002-11-18 09:20:09 51°25.989 2°48.473 2.1 119 10.6 101350 70
2002-11-18 09:20:13 51°25.988 2°48.473 2.4 120 10.6 101360 70
2002-11-18 09:20:19 51°25.987 2°48.473 1.9 116 10.6 101360 70
2002-11-18 09:20:23 51°25.986 2°48.473 2.4 115 10.6 101350 69
2002-11-18 09:20:29 51°25.984 2°48.474 2.4 118 10.6 101350 69
2002-11-18 09:20:33 51°25.983 2°48.474 2.1 115 10.6 101360 69
2002-11-18 09:20:39 51°25.982 2°48.474 2 122 10.6 101360 69
2002-11-18 09:20:43 51°25.981 2°48.475 1.9 120 10.6 101360 69
2002-11-18 09:20:49 51°25.98 2°48.475 2.1 123 10.6 101360 69
2002-11-18 09:20:53 51°25.979 2°48.475 2.5 126 10.6 101350 69
2002-11-18 09:20:59 51°25.977 2°48.476 2.5 125 10.6 101350 69
2002-11-18 09:21:04 51°25.975 2°48.477 2.1 122 10.6 101360 69
2002-11-18 09:21:09 51°25.973 2°48.478 2.7 114 10.6 101360 69
2002-11-18 09:21:13 51°25.971 2°48.479 2.7 111 10.6 101350 69
2002-11-18 09:21:19 51°25.969 2°48.481 2.5 102 10.6 101350 69
2002-11-18 09:21:23 51°25.967 2°48.482 2.1 101 10.6 101360 69
2002-11-18 09:21:29 51°25.964 2°48.485 2.5 96 10.6 101360 69
2002-11-18 09:21:34 51°25.962 2°48.486 2.5 91 10.6 101360 69
2002-11-18 09:21:39 51°25.96 2°48.489 2.6 89 10.6 101360 69
2002-11-18 09:21:44 51°25.958 2°48.491 2.4 79 10.6 101350 69
2002-11-18 09:21:49 51°25.956 2°48.494 2.2 74 10.6 101350 69
2002-11-18 09:21:54 51°25.954 2°48.495 2.3 76 10.6 101350 69
2002-11-18 09:21:59 51°25.953 2°48.498 2.4 76 10.6 101350 69
2002-11-18 09:22:04 51°25.951 2°48.5 2.2 72 10.6 101360 69
2002-11-18 09:22:09 51°25.949 2°48.503 1.8 70 10.6 101360 69
2002-11-18 09:22:14 51°25.948 2°48.505 1.9 67 10.6 101360 69
2002-11-18 09:22:18 51°25.946 2°48.507 1.7 65 10.6 101360 69
2002-11-18 09:22:24 51°25.945 2°48.51 1.8 47 10.6 101360 69
2002-11-18 09:22:29 51°25.943 2°48.512 1.5 50 10.6 101360 69
2002-11-18 09:22:34 51°25.942 2°48.515 1.2 30 10.6 101360 69
2002-11-18 09:22:39 51°25.941 2°48.518 1.2 43 10.6 101360 69
2002-11-18 09:22:44 51°25.939 2°48.521 0.7 134 10.6 101360 69
2002-11-18 09:22:49 51°25.938 2°48.523 1.2 132 10.6 101360 69
2002-11-18 09:22:54 51°25.937 2°48.526 1.3 18 10.6 101360 69
2002-11-18 09:22:58 51°25.936 2°48.528 0.7 30 10.6 101360 69
2002-11-18 09:23:04 51°25.935 2°48.531 1.8 33 10.6 101360 69
2002-11-18 09:23:09 51°25.935 2°48.534 2.5 31 10.6 101360 69
2002-11-18 09:23:14 51°25.934 2°48.537 2.3 28 10.6 101360 69
2002-11-18 09:23:18 51°25.934 2°48.539 1.9 25 10.6 101360 69
2002-11-18 09:23:24 51°25.932 2°48.542 2 29 10.6 101360 69
2002-11-18 09:23:29 51°25.932 2°48.545 2 19 10.6 101360 69
2002-11-18 09:23:34 51°25.931 2°48.548 2 13 10.6 101360 69
2002-11-18 09:23:39 51°25.931 2°48.55 1.9 18 10.6 101360 69
2002-11-18 09:23:44 51°25.93 2°48.552 2 17 10.6 101360 69
2002-11-18 09:23:49 51°25.93 2°48.555 2.1 13 10.6 101360 69
2002-11-18 09:23:54 51°25.929 2°48.557 2.1 16 10.6 101360 68
2002-11-18 09:23:59 51°25.929 2°48.56 2 8 10.6 101360 68
2002-11-18 09:24:04 51°25.928 2°48.562 1.6 6 10.6 101360 68
2002-11-18 09:24:09 51°25.928 2°48.565 1.9 16 10.6 101360 68
2002-11-18 09:24:14 51°25.928 2°48.567 2 6 10.6 101360 68
2002-11-18 09:24:19 51°25.927 2°48.569 2.4 10 10.6 101360 68
2002-11-18 09:24:23 51°25.927 2°48.571 2.1 11 10.6 101360 68
2002-11-18 09:24:29 51°25.927 2°48.574 2.1 5 10.6 101360 68
2002-11-18 09:24:34 51°25.927 2°48.576 1.9 8 10.6 101360 68
2002-11-18 09:24:38 51°25.927 2°48.578 1.9 359 10.6 101360 68
2002-11-18 09:24:44 51°25.927 2°48.581 2.1 360 10.6 101360 68
2002-11-18 09:24:49 51°25.927 2°48.583 2.1 6 10.6 101360 68
2002-11-18 09:24:54 51°25.926 2°48.585 2.3 8 10.6 101360 68
2002-11-18 09:24:59 51°25.927 2°48.588 1.9 354 10.6 101360 68
2002-11-18 09:25:04 51°25.927 2°48.59 1.8 2 10.5 101360 68
2002-11-18 09:25:09 51°25.927 2°48.592 1.7 355 10.5 101360 68
2002-11-18 09:25:14 51°25.927 2°48.594 2 355 10.6 101360 68
2002-11-18 09:25:18 51°25.927 2°48.596 1.4 354 10.6 101360 68
2002-11-18 09:25:24 51°25.927 2°48.598 1 348 10.6 101360 68
2002-11-18 09:25:29 51°25.928 2°48.6 0.9 347 10.6 101360 68
2002-11-18 09:25:34 51°25.928 2°48.602 0.6 342 10.6 101360 68
2002-11-18 09:25:39 51°25.928 2°48.604 0.6 344 10.6 101360 68
2002-11-18 09:25:44 51°25.929 2°48.606 0.3 343 10.6 101360 68
2002-11-18 09:25:49 51°25.929 2°48.608 0.7 311 10.6 101360 68
2002-11-18 09:25:54 51°25.929 2°48.61 0.5 308 10.6 101360 68
2002-11-18 09:25:59 51°25.93 2°48.612 0.3 326 10.6 101360 68
2002-11-18 09:26:04 51°25.93 2°48.613 0.2 336 10.6 101360 69
2002-11-18 09:26:09 51°25.931 2°48.615 0.4 331 10.6 101360 69
2002-11-18 09:26:13 51°25.932 2°48.617 1.9 301 10.6 101360 69
2002-11-18 09:26:19 51°25.934 2°48.619 1.7 309 10.6 101360 69
2002-11-18 09:26:23 51°25.935 2°48.621 2.2 294 10.6 101360 69
2002-11-18 09:26:29 51°25.938 2°48.623 1.1 307 10.6 101360 69
2002-11-18 09:26:34 51°25.94 2°48.625 3.2 299 10.6 101360 69
2002-11-18 09:26:39 51°25.942 2°48.626 3 303 10.6 101360 69
2002-11-18 09:26:44 51°25.945 2°48.626 3.4 294 10.6 101360 69
2002-11-18 09:26:49 51°25.948 2°48.627 3.5 293 10.6 101360 69
2002-11-18 09:26:54 51°25.95 2°48.626 3.3 290 10.6 101360 69
2002-11-18 09:26:59 51°25.954 2°48.626 3.3 282 10.6 101360 69
2002-11-18 09:27:04 51°25.956 2°48.624 3.6 278 10.6 101360 70
2002-11-18 09:27:09 51°25.96 2°48.622 3.7 273 10.6 101360 70
2002-11-18 09:27:14 51°25.963 2°48.62 3.7 271 10.6 101360 70
2002-11-18 09:27:19 51°25.966 2°48.617 3.7 266 10.6 101360 70
2002-11-18 09:27:24 51°25.969 2°48.615 3.8 266 10.6 101360 70
2002-11-18 09:27:29 51°25.972 2°48.612 3.1 270 10.6 101360 70
2002-11-18 09:27:34 51°25.974 2°48.61 2.9 271 10.6 101360 70
2002-11-18 09:27:39 51°25.977 2°48.608 3.2 272 10.6 101360 70
2002-11-18 09:27:44 51°25.979 2°48.605 2.2 272 10.6 101360 70
2002-11-18 09:27:49 51°25.981 2°48.603 3.3 274 10.6 101360 70
2002-11-18 09:27:54 51°25.984 2°48.6 3.2 270 10.6 101360 70
2002-11-18 09:27:59 51°25.986 2°48.598 3.7 280 10.6 101360 70
2002-11-18 09:28:04 51°25.988 2°48.596 4.1 283 10.6 101360 69
2002-11-18 09:28:09 51°25.99 2°48.593 3.9 285 10.6 101360 69
2002-11-18 09:28:14 51°25.992 2°48.591 3.5 284 10.6 101360 69
2002-11-18 09:28:19 51°25.994 2°48.589 3.2 287 10.6 101360 69
2002-11-18 09:28:23 51°25.996 2°48.587 3.1 286 10.6 101360 70
2002-11-18 09:28:29 51°25.998 2°48.585 3.2 289 10.6 101360 70
2002-11-18 09:28:33 51°26 2°48.584 3.2 283 10.6 101360 70
2002-11-18 09:28:39 51°26.002 2°48.582 3.2 287 10.6 101360 70
2002-11-18 09:28:44 51°26.004 2°48.58 3.5 288 10.6 101360 70
2002-11-18 09:28:49 51°26.005 2°48.578 3.4 283 10.6 101360 70
2002-11-18 09:28:54 51°26.007 2°48.576 3.9 283 10.6 101360 70
2002-11-18 09:28:59 51°26.008 2°48.575 3.2 270 10.6 101360 70
2002-11-18 09:29:04 51°26.01 2°48.573 2.9 268 10.6 101360 70
2002-11-18 09:29:09 51°26.011 2°48.572 2.8 273 10.6 101360 70
2002-11-18 09:29:14 51°26.013 2°48.57 3.5 272 10.6 101360 70
2002-11-18 09:29:19 51°26.014 2°48.568 3.1 269 10.6 101360 70
2002-11-18 09:29:24 51°26.016 2°48.567 3.1 272 10.6 101360 71
2002-11-18 09:29:29 51°26.017 2°48.566 3.1 273 10.6 101360 71
2002-11-18 09:29:34 51°26.018 2°48.564 3.3 273 10.6 101360 71
2002-11-18 09:29:39 51°26.02 2°48.562 3.1 262 10.6 101360 71